Weather in Puerto Mont

Chile     41˚28′09″S   72˚56′49″W
temp.,
°C
wind,
m/s
gust,
m/s
humid.,
%
clouds,
%
prec.,
mm/h
press.,
hPa
HPBL,
m
1 december, tue
tue100:00+7˚wnw23920 0.0 102080
03:00+6˚nw22920 0.0 101962
06:00+6˚nw229323 0.0 101875
09:00+9˚nnw128360 0.0 1018153
12:00+11˚nw1269100 0.2 1018553
15:00+13˚se1366100 0.3 1017615
18:00+11˚ese2273100 0.1 1017233
21:00+11˚ne2277100 0.1 1019149
2 december, wed
wed200:00+11˚n237696 0.0 1020181
03:00+10˚nnw348598 0.1 1019190
06:00+10˚s5787100 0.2 1020574
09:00+10˚s4576100 0.4 1021711
12:00+12˚sse436288 0.0 1022819
15:00+12˚se556368 0.0 1020553
18:00+12˚sse566354 0.0 1020557
21:00+10˚sw256738 0.0 1021418
3 december, thu
thu300:00+9˚ssw467958 0.0 1023616
03:00+9˚ssw587579 0.0 1022817
06:00+8˚ssw587442 0.0 1023841
09:00+11˚s575926 0.0 10221273
12:00+11˚s686414 0.0 10211010
15:00+12˚sse79627 0.0 1020837
18:00+12˚s710600 0.0 1020827
21:00+11˚s69660 0.0 1022714
4 december, fri
fri400:00+11˚s812740 0.0 1023854
03:00+10˚s710810 0.0 1022717
06:00+10˚s698256 0.0 1022732
09:00+11˚s697871 0.0 1021720
12:00+12˚s697219 0.0 1019634
15:00+13˚s7106455 0.0 1018541
18:00+13˚s6106128 0.0 1017449
21:00+12˚s6126814 0.0 1018479
5 december, sat
sat500:00+12˚s813710 0.0 1019577
03:00+11˚s6108216 0.0 1018534
06:00+10˚ssw588956 0.0 1018467
09:00+12˚s578178 0.0 1019586
12:00+13˚s577794 0.0 1018467
15:00+14˚sse576780 0.0 1017363
18:00+14˚s69650 0.0 1016390
21:00+13˚ssw49741 0.0 1017305